OPS 4682 DEB, 18675

Orbit data source: Space-Track

OPS 4682 DEB, 18675 is space debris in LEO originally from a launch on Sat, 03 Apr 1965 UTC launched from the Air Force Western Test Range (AFWTR). Debris objects in space refer to the collection of defunct objects orbiting the Earth. Examples of debris include non-operational satellites, rocket bodies, and fragments generated from explosions, collisions, or faulty payload assembly.

Loading next visibility...
Identifier
18675, 1965-027AH
Orbit
LEO
Country
Flag of USUS
Related business
Manufacturer
Unknown
Mission
Spacecraft
Bus & Motor
Unknown
Mass
Unknown
Launch date (UTC)
1965-04-03 (61 years ago)
Launch vehicle
Unknown
Launch site
Air Force Western Test Range (AFWTR)
Object type
Payload
Rocket body
Debris
Shape & HBR
Unknown shape, 0.1 m
Radar Cross Section
Medium (>0.1 m² and <1 m²)

Expand to show TLE details & history
Last TLE update: 23 hours ago

TLE from 23 hours ago
0 OPS 4682 DEB
1 18675U 65027AH  26236.07986682  .00000492  00000-0  16093-2 0  9998
2 18675  90.2446 355.9561 0028600  91.3941  85.9970 12.99969499867412
Epoch: 2026-08-24T01:55Z
TLE epoch observation values (Epoch: 2026-08-24T01:55:00.493Z)
Latitude
2.18234°
Longitude
174.84661°
Altitude
1,263.37 km
Speed
7.225 km/s
True Right ascension
11h 43m 51s
True Declination
2° 10' 13"
Sunlit
Object was in daylight at epoch
Visualization orbit readout
Latitude
Unknown
Longitude
Unknown
Altitude
Unknown
Speed
Unknown
Apparent Right ascension
Unknown
Apparent Declination
Unknown
Sunlit
N/A
Visualization observer readout
Local Sidereal Time
15:55:52
Azimuth
Unknown
Elevation
Unknown
Doppler factor
Unknown
Orbital elements
Apogee altitude
1,281.176 km
Perigee altitude
1,237.49 km
Semi-major axis
7,637.47 km
Eccentricity
0.00286
Inclination
90.2446°
RAAN
355.9561°
Arg. of periapsis
91.3941°
True anomaly
86.32401°
Mean anomaly
85.997°
Eccentric anomaly
86.1605°
Mean motion
3.25176 °/min
Orbital period
110.71 mins
BSTAR
0.0016093
Loading maneuver chart data...
Computing Atmospheric mass density...
Loading historical data...
Loading historical data...
Loading historical data...
Loading historical data...
Loading historical data...
Loading historical data...
Loading historical data...

Documentation

Showing up to 5 results
|